| time (UTC) | temp F | wind direction | speed MPH | gust MPH | rain 1hr in | rain 24hr in | rain mn in | humidity % | barometer mb |
| 20260507023014 | 53 | 344 | 0.0 | 1.0 | 0.00 | 2.02 | 2.02 | 95 | 1016.9 |
| 20260507023007 | 53 | 14 | 0.0 | 1.0 | 0.00 | 2.03 | 2.03 | 95 | 1016.1 |
| 20260507021515 | 52 | 16 | 0.0 | 1.0 | 0.00 | 2.02 | 2.02 | 95 | 1016.7 |
| 20260507021508 | 52 | 46 | 0.0 | 1.0 | 0.00 | 2.03 | 2.03 | 95 | 1016.0 |
| 20260507020019 | 52 | 47 | 0.0 | 0.0 | 0.00 | 2.03 | 2.03 | 95 | 1016.0 |
| 20260507020012 | 52 | 17 | 0.0 | 0.0 | 0.00 | 2.02 | 2.02 | 95 | 1016.9 |
| 20260507014528 | 52 | 47 | 0.0 | 1.0 | 0.00 | 2.03 | 2.03 | 95 | 1015.4 |
| 20260507014512 | 52 | 17 | 0.0 | 1.0 | 0.00 | 2.02 | 2.02 | 95 | 1016.2 |
| 20260507013026 | 52 | 43 | 0.0 | 0.0 | 0.00 | 2.03 | 2.03 | 95 | 1015.7 |
| 20260507013011 | 52 | 14 | 0.0 | 0.0 | 0.00 | 2.02 | 2.02 | 95 | 1016.6 |
| 20260507011530 | 53 | 43 | 0.0 | 0.0 | 0.00 | 2.03 | 2.03 | 94 | 1015.1 |
| 20260507011518 | 53 | 13 | 0.0 | 0.0 | 0.00 | 2.02 | 2.02 | 95 | 1015.8 |
| 20260507010028 | 53 | 43 | 0.0 | 1.0 | 0.00 | 2.03 | 2.03 | 94 | 1014.8 |
| 20260507010010 | 53 | 13 | 0.0 | 0.0 | 0.00 | 2.02 | 2.02 | 95 | 1015.6 |
| 20260507004522 | 53 | 62 | 0.0 | 1.0 | 0.00 | 2.03 | 2.03 | 94 | 1014.6 |
| 20260507004512 | 53 | 32 | 0.0 | 1.0 | 0.00 | 2.02 | 2.02 | 94 | 1015.4 |
| 20260507003019 | 53 | 21 | 0.0 | 3.0 | 0.00 | 2.03 | 2.03 | 93 | 1014.5 |
| 20260507003016 | 53 | 351 | 0.0 | 3.0 | 0.00 | 2.02 | 2.02 | 94 | 1015.4 |
| 20260507001529 | 53 | 80 | 0.0 | 0.0 | 0.00 | 2.03 | 2.03 | 94 | 1015.2 |
| 20260507001509 | 53 | 34 | 0.0 | 0.0 | 0.00 | 2.02 | 2.02 | 94 | 1016.1 |
| 20260507000028 | 53 | 73 | 0.0 | 1.0 | 0.00 | 2.03 | 2.03 | 93 | 1015.3 |
| 20260507000018 | 53 | 44 | 0.0 | 1.0 | 0.00 | 2.02 | 2.02 | 94 | 1016.1 |
| 20260506234606 | 53 | 27 | 0.0 | 0.0 | 0.00 | 2.02 | 2.02 | 94 | 1016.2 |
| 20260506234527 | 53 | 57 | 0.0 | 0.0 | 0.00 | 2.03 | 2.03 | 93 | 1015.4 |
| 20260506233025 | 53 | 57 | 0.0 | 0.0 | 0.00 | 2.03 | 2.03 | 92 | 1015.5 |
| 20260506233013 | 53 | 27 | 0.0 | 0.0 | 0.00 | 2.02 | 2.02 | 93 | 1016.3 |
| 20260506231525 | 53 | 4 | 0.0 | 0.0 | 0.00 | 2.02 | 2.02 | 92 | 1016.3 |
| 20260506230028 | 53 | 3 | 0.0 | 2.0 | 0.00 | 2.02 | 2.02 | 93 | 1016.0 |
| 20260506230003 | 53 | 34 | 0.0 | 2.0 | 0.00 | 2.03 | 2.03 | 92 | 1015.1 |
| 20260506224529 | 53 | 21 | 0.0 | 1.0 | 0.00 | 2.02 | 2.02 | 93 | 1016.0 |
| 20260506224503 | 53 | 51 | 0.0 | 1.0 | 0.00 | 2.03 | 2.03 | 92 | 1015.1 |
| 20260506223035 | 53 | 6 | 0.0 | 1.0 | 0.00 | 2.02 | 2.02 | 93 | 1015.8 |
| 20260506223014 | 53 | 35 | 0.0 | 1.0 | 0.00 | 2.03 | 2.03 | 92 | 1015.0 |
| 20260506221611 | 53 | 38 | 0.0 | 0.0 | 0.00 | 2.02 | 2.02 | 94 | 1015.5 |
| 20260506221512 | 53 | 68 | 0.0 | 0.0 | 0.00 | 2.03 | 2.03 | 94 | 1014.7 |
| 20260506220027 | 52 | 37 | 0.0 | 1.0 | 0.00 | 2.02 | 2.02 | 93 | 1014.4 |
| 20260506220009 | 52 | 71 | 0.0 | 1.0 | 0.00 | 2.03 | 2.03 | 93 | 1013.8 |
| 20260506214526 | 52 | 55 | 0.0 | 0.0 | 0.00 | 2.02 | 2.02 | 93 | 1015.0 |
| 20260506214505 | 52 | 85 | 0.0 | 0.0 | 0.00 | 2.03 | 2.03 | 93 | 1014.2 |
| 20260506213025 | 52 | 15 | 0.0 | 2.0 | 0.00 | 2.02 | 2.02 | 93 | 1015.0 |
| 20260506213011 | 52 | 45 | 0.0 | 2.0 | 0.00 | 2.03 | 2.03 | 93 | 1014.3 |
| 20260506211524 | 52 | 12 | 0.0 | 3.0 | 0.00 | 2.02 | 2.02 | 93 | 1015.2 |
| 20260506211518 | 52 | 54 | 0.0 | 3.0 | 0.00 | 2.03 | 2.03 | 93 | 1014.5 |
| 20260506210024 | 52 | 66 | 0.0 | 6.0 | 0.00 | 2.02 | 2.02 | 93 | 1014.8 |
| 20260506210020 | 52 | 100 | 1.0 | 6.0 | 0.00 | 2.03 | 2.03 | 92 | 1014.2 |
| 20260506204524 | 52 | 63 | 0.0 | 4.0 | 0.00 | 2.02 | 2.02 | 95 | 1015.2 |
| 20260506204518 | 52 | 88 | 0.0 | 4.0 | 0.00 | 2.03 | 2.03 | 95 | 1014.5 |
| 20260506203030 | 51 | 30 | 1.0 | 4.0 | 0.00 | 2.02 | 2.02 | 95 | 1015.1 |
| 20260506203010 | 51 | 42 | 1.0 | 6.0 | 0.00 | 2.03 | 2.03 | 95 | 1014.4 |
| 20260506201523 | 51 | 10 | 0.0 | 2.0 | 0.00 | 2.02 | 2.02 | 96 | 1015.0 |
| 20260506201508 | 51 | 345 | 0.0 | 2.0 | 0.00 | 2.03 | 2.03 | 96 | 1014.3 |
| 20260506200018 | 51 | 318 | 0.0 | 2.0 | 0.01 | 2.02 | 2.02 | 96 | 1015.3 |
| 20260506200005 | 51 | 121 | 0.0 | 2.0 | 0.01 | 2.03 | 2.03 | 96 | 1014.6 |
| 20260506194524 | 51 | 71 | 0.0 | 3.0 | 0.03 | 2.03 | 2.03 | 96 | 1014.7 |
| 20260506193028 | 51 | 29 | 0.0 | 2.0 | 0.06 | 2.02 | 2.02 | 97 | 1016.1 |
| 20260506193017 | 51 | 59 | 0.0 | 2.0 | 0.06 | 2.03 | 2.03 | 96 | 1015.4 |
| 20260506191519 | 50 | 42 | 0.0 | 1.0 | 0.08 | 2.03 | 2.03 | 96 | 1015.9 |
| 20260506190036 | 50 | 18 | 0.0 | 1.0 | 0.09 | 2.02 | 2.02 | 96 | 1017.2 |
| 20260506190014 | 50 | 21 | 0.0 | 1.0 | 0.09 | 2.02 | 2.02 | 96 | 1016.4 |
| 20260506184605 | 49 | 331 | 0.0 | 3.0 | 0.09 | 2.02 | 2.00 | 96 | 1016.1 |
| 20260506184510 | 49 | 1 | 0.0 | 3.0 | 0.08 | 2.00 | 2.00 | 95 | 1015.1 |
| 20260506183032 | 50 | 10 | 0.0 | 1.0 | 0.05 | 1.98 | 1.97 | 96 | 1016.5 |
| 20260506183008 | 50 | 35 | 0.0 | 1.0 | 0.05 | 1.98 | 1.97 | 96 | 1015.8 |
| 20260506181605 | 49 | 10 | 0.0 | 4.0 | 0.04 | 1.96 | 1.95 | 96 | 1016.1 |
| 20260506181523 | 49 | 50 | 0.0 | 1.0 | 0.04 | 1.96 | 1.95 | 96 | 1016.0 |
| 20260506180021 | 49 | 40 | 0.0 | 1.0 | 0.22 | 1.94 | 1.93 | 95 | 1017.2 |
| 20260506174522 | 49 | 44 | 0.0 | 1.0 | 0.21 | 1.93 | 1.92 | 96 | 1017.6 |
| 20260506174514 | 49 | 14 | 0.0 | 0.0 | 0.21 | 1.94 | 1.92 | 96 | 1018.5 |
| 20260506173032 | 49 | 20 | 0.0 | 1.0 | 0.27 | 1.94 | 1.92 | 96 | 1016.9 |
| 20260506173017 | 49 | 50 | 0.0 | 1.0 | 0.27 | 1.94 | 1.92 | 96 | 1016.1 |
| 20260506171612 | 49 | 3 | 0.0 | 2.0 | 0.26 | 1.93 | 1.91 | 95 | 1017.1 |
| 20260506171510 | 49 | 26 | 0.0 | 2.0 | 0.26 | 1.93 | 1.91 | 95 | 1016.4 |
| 20260506170015 | 49 | 351 | 0.0 | 3.0 | 0.06 | 1.73 | 1.71 | 95 | 1017.4 |
| 20260506170011 | 49 | 2 | 1.0 | 3.0 | 0.06 | 1.73 | 1.71 | 95 | 1016.7 |
| 20260506164527 | 49 | 57 | 0.0 | 3.0 | 0.06 | 1.74 | 1.71 | 94 | 1015.6 |
| 20260506164504 | 49 | 28 | 0.0 | 3.0 | 0.06 | 1.75 | 1.71 | 94 | 1016.2 |
| 20260506163037 | 50 | 90 | 0.0 | 3.0 | 0.00 | 1.68 | 1.65 | 93 | 1016.3 |
| 20260506163004 | 50 | 100 | 0.0 | 3.0 | 0.00 | 1.69 | 1.65 | 93 | 1016.9 |
| 20260506161520 | 50 | 19 | 0.0 | 2.0 | 0.00 | 1.69 | 1.65 | 94 | 1015.8 |
| 20260506161502 | 50 | 349 | 0.0 | 2.0 | 0.00 | 1.69 | 1.65 | 94 | 1016.4 |
| 20260506160108 | 50 | 61 | 0.0 | 4.0 | 0.01 | 1.69 | 1.65 | 94 | 1016.2 |
| 20260506160017 | 50 | 27 | 0.0 | 4.0 | 0.01 | 1.69 | 1.65 | 94 | 1015.7 |
| 20260506154518 | 49 | 65 | 0.0 | 3.0 | 0.01 | 1.70 | 1.65 | 95 | 1015.7 |
| 20260506154516 | 49 | 74 | 1.0 | 3.0 | 0.01 | 1.69 | 1.65 | 94 | 1015.2 |
| 20260506153137 | 49 | 357 | 0.0 | 3.0 | 0.01 | 1.70 | 1.65 | 95 | 1016.1 |
| 20260506153026 | 49 | 31 | 0.0 | 3.0 | 0.01 | 1.69 | 1.65 | 95 | 1015.5 |
| 20260506151545 | 49 | 360 | 0.0 | 2.0 | 0.01 | 1.70 | 1.65 | 95 | 1016.1 |
| 20260506151525 | 49 | 30 | 0.0 | 2.0 | 0.01 | 1.69 | 1.65 | 95 | 1015.6 |
| 20260506150045 | 49 | 6 | 0.0 | 2.0 | 0.00 | 1.69 | 1.64 | 95 | 1016.1 |
| 20260506150028 | 49 | 60 | 0.0 | 2.0 | 0.00 | 1.69 | 1.64 | 95 | 1015.6 |
| 20260506144542 | 48 | 25 | 0.0 | 4.0 | 0.00 | 1.70 | 1.64 | 95 | 1016.0 |
| 20260506144524 | 48 | 55 | 1.0 | 4.0 | 0.00 | 1.69 | 1.64 | 95 | 1015.4 |
| 20260506143041 | 48 | 36 | 0.0 | 5.0 | 0.00 | 1.70 | 1.64 | 96 | 1016.1 |
| 20260506143021 | 48 | 81 | 1.0 | 5.0 | 0.00 | 1.69 | 1.64 | 96 | 1015.5 |
| 20260506141540 | 48 | 45 | 0.0 | 4.0 | 0.00 | 1.70 | 1.64 | 96 | 1015.8 |
| 20260506141515 | 48 | 76 | 0.0 | 4.0 | 0.00 | 1.69 | 1.64 | 96 | 1015.1 |
| 20260506140038 | 48 | 3 | 1.0 | 3.0 | 0.00 | 1.70 | 1.64 | 97 | 1015.2 |
| 20260506140034 | 48 | 98 | 1.0 | 3.0 | 0.00 | 1.70 | 1.64 | 96 | 1014.7 |
| 20260506134554 | 48 | 318 | 0.0 | 5.0 | 0.00 | 1.72 | 1.64 | 97 | 1015.2 |
| 20260506134525 | 48 | 45 | 0.0 | 5.0 | 0.00 | 1.70 | 1.64 | 96 | 1014.8 |
| 20260506133024 | 49 | 85 | 0.0 | 4.0 | 0.00 | 1.70 | 1.64 | 96 | 1015.1 |
| 20260506133022 | 49 | 68 | 0.0 | 4.0 | 0.00 | 1.72 | 1.64 | 96 | 1015.6 |
| 20260506131525 | 49 | 85 | 1.0 | 6.0 | 0.00 | 1.71 | 1.64 | 96 | 1014.8 |
| 20260506131510 | 49 | 68 | 0.0 | 6.0 | 0.00 | 1.72 | 1.64 | 96 | 1015.2 |
| 20260506130021 | 49 | 113 | 1.0 | 4.0 | 0.01 | 1.72 | 1.64 | 96 | 1014.7 |
| 20260506124612 | 49 | 62 | 0.0 | 3.0 | 0.12 | 1.72 | 1.64 | 97 | 1015.0 |
| 20260506124516 | 49 | 72 | 0.0 | 3.0 | 0.12 | 1.72 | 1.64 | 96 | 1014.4 |
| 20260506123030 | 48 | 81 | 0.0 | 4.0 | 0.12 | 1.72 | 1.64 | 96 | 1013.8 |
| 20260506123003 | 48 | 51 | 0.0 | 4.0 | 0.12 | 1.72 | 1.64 | 97 | 1014.3 |
| 20260506121605 | 49 | 60 | 0.0 | 2.0 | 0.21 | 1.72 | 1.64 | 97 | 1014.0 |
| 20260506121527 | 49 | 91 | 0.0 | 2.0 | 0.22 | 1.72 | 1.64 | 96 | 1013.5 |
| 20260506120032 | 49 | 43 | 1.0 | 4.0 | 0.26 | 1.71 | 1.63 | 96 | 1013.1 |
| 20260506120010 | 49 | 16 | 0.0 | 4.0 | 0.25 | 1.70 | 1.62 | 97 | 1013.5 |
| 20260506114525 | 49 | 339 | 0.0 | 2.0 | 0.20 | 1.60 | 1.52 | 96 | 1013.1 |
| 20260506114521 | 49 | 340 | 0.0 | 2.0 | 0.20 | 1.60 | 1.52 | 97 | 1013.6 |
| 20260506113105 | 49 | 8 | 0.0 | 2.0 | 0.20 | 1.60 | 1.52 | 97 | 1012.8 |
| 20260506113023 | 49 | 73 | 0.0 | 2.0 | 0.20 | 1.60 | 1.52 | 96 | 1012.4 |
| 20260506111526 | 49 | 342 | 0.0 | 6.0 | 0.12 | 1.51 | 1.43 | 97 | 1012.8 |
| 20260506110018 | 49 | 114 | 0.0 | 3.0 | 0.08 | 1.45 | 1.37 | 96 | 1011.7 |
| 20260506110016 | 49 | 68 | 0.0 | 3.0 | 0.08 | 1.45 | 1.37 | 97 | 1011.9 |
| 20260506104609 | 50 | 36 | 0.0 | 4.0 | 0.03 | 1.40 | 1.32 | 96 | 1011.9 |
| 20260506104514 | 50 | 26 | 0.0 | 4.0 | 0.03 | 1.40 | 1.32 | 96 | 1011.7 |
| 20260506103109 | 50 | 44 | 0.0 | 4.0 | 0.03 | 1.40 | 1.32 | 96 | 1012.0 |
| 20260506103018 | 50 | 63 | 0.0 | 4.0 | 0.03 | 1.40 | 1.32 | 96 | 1012.2 |
| 20260506101539 | 50 | 349 | 0.0 | 3.0 | 0.02 | 1.39 | 1.31 | 96 | 1011.4 |
| 20260506101504 | 50 | 32 | 0.0 | 3.0 | 0.02 | 1.39 | 1.31 | 96 | 1011.3 |
| 20260506100039 | 50 | 67 | 0.0 | 2.0 | 0.00 | 1.37 | 1.29 | 96 | 1011.3 |
| 20260506100024 | 51 | 38 | 0.0 | 3.0 | 0.00 | 1.37 | 1.29 | 96 | 1011.3 |
| 20260506094537 | 51 | 13 | 0.0 | 3.0 | 0.01 | 1.37 | 1.29 | 96 | 1011.1 |
| 20260506094522 | 51 | 137 | 0.0 | 5.0 | 0.01 | 1.37 | 1.29 | 95 | 1010.9 |
| 20260506093034 | 52 | 13 | 1.0 | 3.0 | 0.01 | 1.37 | 1.29 | 96 | 1010.8 |
| 20260506091530 | 52 | 1 | 0.0 | 2.0 | 0.05 | 1.37 | 1.29 | 97 | 1010.5 |
| 20260506091517 | 52 | 60 | 0.0 | 2.0 | 0.08 | 1.37 | 1.29 | 96 | 1010.2 |
| 20260506090029 | 53 | 35 | 0.0 | 6.0 | 0.40 | 1.37 | 1.29 | 96 | 1011.0 |
| 20260506090010 | 53 | 41 | 0.0 | 6.0 | 0.40 | 1.37 | 1.29 | 96 | 1010.9 |
| 20260506084535 | 53 | 323 | 0.0 | 1.0 | 0.40 | 1.36 | 1.28 | 97 | 1010.5 |
| 20260506084512 | 53 | 353 | 0.0 | 1.0 | 0.40 | 1.36 | 1.28 | 96 | 1010.6 |
| 20260506083031 | 54 | 336 | 0.0 | 7.0 | 0.41 | 1.36 | 1.28 | 96 | 1010.5 |
| 20260506083025 | 54 | 45 | 0.0 | 7.0 | 0.41 | 1.36 | 1.28 | 96 | 1010.3 |
| 20260506081522 | 55 | 134 | 0.0 | 12.0 | 0.35 | 1.30 | 1.22 | 96 | 1009.7 |
| 20260506073027 | 58 | 29 | 1.0 | 6.0 | 0.01 | 0.95 | 0.87 | 95 | 1008.3 |
| 20260506073012 | 58 | 359 | 0.0 | 6.0 | 0.00 | 0.95 | 0.87 | 95 | 1008.6 |
| 20260506071528 | 59 | 89 | 1.0 | 7.0 | 0.60 | 0.95 | 0.87 | 95 | 1008.1 |
| 20260506071506 | 59 | 67 | 0.0 | 7.0 | 0.53 | 0.95 | 0.87 | 95 | 1008.3 |
| 20260506061551 | 69 | 335 | 3.0 | 10.0 | 0.32 | 0.40 | 0.32 | 98 | 1007.7 |
| 20260506061530 | 69 | 10 | 2.0 | 5.0 | 0.27 | 0.35 | 0.27 | 98 | 1007.5 |
| 20260506044543 | 68 | 29 | 0.0 | 0.0 | 0.00 | 0.08 | 0.08 | 98 | 1006.8 |
| 20260506044521 | 68 | 59 | 0.0 | 0.0 | 0.00 | 0.08 | 0.08 | 97 | 1006.4 |
| 20260506043040 | 68 | 29 | 0.0 | 0.0 | 0.00 | 0.08 | 0.08 | 98 | 1006.6 |
| 20260506043018 | 68 | 59 | 0.0 | 0.0 | 0.00 | 0.08 | 0.08 | 97 | 1006.3 |
| 20260506041555 | 69 | 29 | 0.0 | 0.0 | 0.00 | 0.08 | 0.08 | 98 | 1006.8 |
| 20260506041516 | 69 | 59 | 0.0 | 0.0 | 0.00 | 0.08 | 0.08 | 97 | 1006.5 |
| 20260506040039 | 69 | 29 | 0.0 | 0.0 | 0.00 | 0.08 | 0.08 | 98 | 1007.1 |
| 20260506040017 | 69 | 59 | 0.0 | 0.0 | 0.00 | 0.08 | 0.08 | 97 | 1006.9 |
| 20260506034549 | 68 | 29 | 0.0 | 0.0 | 0.00 | 0.08 | 0.08 | 97 | 1006.8 |
| 20260506034526 | 68 | 59 | 0.0 | 0.0 | 0.00 | 0.08 | 0.08 | 97 | 1006.5 |
| 20260506033039 | 69 | 29 | 0.0 | 0.0 | 0.00 | 0.08 | 0.08 | 97 | 1006.3 |
| 20260506033025 | 69 | 59 | 0.0 | 0.0 | 0.00 | 0.08 | 0.08 | 97 | 1006.1 |
| 20260506031536 | 69 | 29 | 0.0 | 0.0 | 0.00 | 0.08 | 0.08 | 97 | 1006.1 |
| 20260506031523 | 69 | 59 | 0.0 | 0.0 | 0.00 | 0.08 | 0.08 | 97 | 1006.0 |
| 20260506030038 | 69 | 29 | 0.0 | 0.0 | 0.00 | 0.08 | 0.08 | 97 | 1006.8 |
| 20260506030020 | 69 | 59 | 0.0 | 0.0 | 0.00 | 0.08 | 0.08 | 97 | 1006.5 |
| 20260506024536 | 69 | 29 | 0.0 | 0.0 | 0.00 | 0.08 | 0.08 | 97 | 1006.2 |
| 20260506024517 | 69 | 59 | 0.0 | 0.0 | 0.00 | 0.08 | 0.08 | 97 | 1006.0 |